User: anonymous   Login
Location: ??
(35.5052°N, 139.7262°E)
Time: 05:35:29
(UTC+00:00)
Language:

NOSS 3-1 (C) - Orbit

View from above orbital plane
View from above orbital plane
View from above satellite
View from above satellite

Ground track
Ground track

The orbit data is extracted from the following two-line orbital elements,

1 26907U 01040C   21211.79348043 0.00000000  00000-0  00000-0 0    07
2 26907  63.3883 137.9959 0511011   2.8534 357.0738 13.41332796    03
Epoch (UTC): 30 July 2021 19:02:36
Eccentricity: 0.0511011
inclination: 63.3883°
perigee height: 722 km
apogee height: 1486 km
right ascension of ascending node: 137.9959°
argument of perigee: 2.8534°
revolutions per day: 13.41332796
mean anomaly at epoch: 357.0738°
orbit number at epoch: 0

The dashed part of the orbit path shows where the satellite is in the earth's shadow,  

DLR